Terminal Aerodrome Forecast
Issued by NWS Miami, FL

Home | Current Version | Previous Version | Text Only | Print | Product List | Glossary On
Versions: 1 2 3 4 5 6 7 8 9 10 11 12 13 14 15 16 17 18 19 20 21 22 23 24 25
000
FTUS42 KMFL 191734
TAFAPF
TAF
KAPF 191734Z 1918/2018 23006KT P6SM FEW035 SCT250
     FM200100 VRB03KT P6SM FEW040 SCT250
     FM201500 17007KT P6SM SCT035 SCT250=

USA.gov is the U.S. government's official web portal to all federal, state and local government web resources and services.